Home   Weather   Jena   Past weeks

Flag for Germany Past Weather in Jena, Thuringia, Germany — Yesterday and Last 2 Weeks

Now
37 °F

Scattered clouds.


Feels Like: 30 °F
Forecast: 32 / 44 °F
Wind: 10 mph from Northwest

Location: Erfurt-Bindersleben

Current Time: Feb 24, 2017 at 4:15:20 pm

Latest Report: Feb 24, 2017 at 3:50 pm


Visibility: N/A

Pressure: 29.89 "Hg

Humidity: 75%

Dew Point: 30 °F

Location of JenaLocation

Past Weather in Jena — Graph

°F

Jena Temperature Yesterday

Maximum temperature yesterday: 52 °F (at 2:50 pm)
Minimum temperature yesterday: 43 °F (at 12:20 am)
Average temperature yesterday: 46 °F

High & Low Weather Summary for the Past Weeks

 TemperatureHumidityPressure
High54 °F (Feb 16, 3:50 pm)100% (Feb 10, 8:50 am)30.54 "Hg (Feb 10, 8:50 am)
Low21 °F (Feb 10, 4:20 am)57% (Feb 23, 11:20 pm)29.24 "Hg (Feb 23, 10:20 pm)
Average36 °F88%30.14 "Hg
* Reported Feb 9 3:20 pm — Feb 24 3:20 pm, Jena, Weather by CustomWeather, © 2017

Note: Actual official high and low records may vary slightly from our data, if they occured in-between our weather recording intervals... More about our weather records

Advertising

Jena Weather History for the Previous 24 Hours

Scroll right to see more
 ConditionsComfort  
Time TempWeatherWind HumidityBarometerVisibility
3:20 pm
Fri, Feb 24
36 °FSnow flurries. Broken clouds.14 mph87%29.86 "HgN/A
2:50 pm37 °FScattered clouds.15 mph81%29.86 "HgN/A
2:20 pm36 °FScattered clouds.20 mph87%29.86 "HgN/A
1:50 pm39 °FScattered clouds.17 mph75%29.83 "HgN/A
1:20 pm37 °FPartly sunny.22 mph81%29.83 "HgN/A
12:50 pm36 °FSnow. Scattered clouds.24 mph87%29.80 "HgN/A
12:20 pm39 °FPartly sunny.22 mph70%29.80 "HgN/A
11:50 am39 °FPartly sunny.23 mph70%29.77 "HgN/A
11:20 am37 °FSnow flurries. Broken clouds.29 mph70%29.74 "HgN/A
10:50 am37 °FPartly sunny.28 mph75%29.74 "HgN/A
10:20 am37 °FPartly sunny.25 mph75%29.71 "HgN/A
9:50 am36 °FPartly sunny.22 mph81%29.71 "HgN/A
9:20 am36 °FPartly sunny.22 mph81%29.68 "HgN/A
8:50 am34 °FPartly sunny.21 mph87%29.68 "HgN/A
8:20 am34 °FScattered showers. Scattered clouds.20 mph87%29.65 "HgN/A
7:50 am34 °FScattered showers. Scattered clouds.20 mph93%29.62 "HgN/A
7:20 am32 °FSnow showers. Broken clouds.21 mph100%29.59 "Hg1 mi
6:50 am36 °FSnow flurries. Passing clouds.29 mph81%29.56 "HgN/A
6:20 am36 °FPassing clouds.31 mph81%29.53 "HgN/A
5:50 am36 °FPassing clouds.37 mph81%29.50 "HgN/A
5:20 am36 °FLight rain. Mostly cloudy.32 mph93%29.47 "HgN/A
4:50 am36 °FLight rain. Mostly cloudy.31 mph93%29.45 "HgN/A
4:20 am37 °FLight rain. Mostly cloudy.37 mph87%29.42 "HgN/A
3:50 am39 °FLight rain. Mostly cloudy.40 mph81%29.33 "HgN/A
3:20 am39 °FLight rain. Mostly cloudy.39 mph81%29.30 "HgN/A
2:50 am43 °FLight rain. Partly cloudy.38 mph66%29.30 "HgN/A
2:20 am43 °FPartly cloudy.31 mph66%29.27 "HgN/A
1:50 am41 °FLight rain. Passing clouds.35 mph76%29.30 "HgN/A
1:20 am45 °FLight rain. Passing clouds.33 mph61%29.27 "HgN/A
12:50 am45 °FPassing clouds.33 mph57%29.27 "HgN/A
12:20 am45 °FClear.32 mph57%29.24 "Hg10 mi
11:50 pm
Thu, Feb 23
45 °FClear.33 mph57%29.27 "Hg10 mi
11:20 pm45 °FClear.36 mph57%29.24 "Hg10 mi
10:50 pm45 °FClear.36 mph61%29.24 "Hg10 mi
10:20 pm45 °FClear.33 mph61%29.24 "Hg10 mi
9:50 pm45 °FClear.31 mph66%29.27 "Hg10 mi
9:20 pm45 °FPassing clouds.39 mph66%29.27 "HgN/A
8:50 pm46 °FClear.31 mph62%29.27 "Hg10 mi
8:20 pm45 °FClear.32 mph66%29.27 "Hg10 mi
7:50 pm46 °FPassing clouds.29 mph66%29.27 "HgN/A
7:20 pm43 °FPassing clouds.18 mph93%29.27 "HgN/A
6:50 pm48 °FLight rain. Partly cloudy.29 mph71%29.27 "HgN/A
6:20 pm48 °FLight rain. Passing clouds.31 mph71%29.27 "HgN/A
5:50 pm48 °FPassing clouds.25 mph71%29.27 "HgN/A
5:20 pm46 °FPartly sunny.22 mph76%29.27 "HgN/A
4:50 pm48 °FLight rain. Partly sunny.24 mph66%29.30 "HgN/A
4:20 pm48 °FPartly sunny.25 mph66%29.33 "HgN/A
Weather by CustomWeather, © 2017

See weather overviewHow to use our weather pages